Location: Bittelbronn
(48.4454°N, 8.5870°E)
Time: 08:19:56
(UTC+00:00)

Meteor 2-5 Rocket - Pass Details

Date: 16 August 2024
Orbit: 833 x 910 km, 81.2° (Epoch: 16 September)

Event Time Altitude Azimuth Distance (km) Brightness Sun altitude
Rises 03:31:39 0° 332° (NNW) 3,484 7.0 -8.2°
Reaches altitude 10° 03:35:21 10° 308° (NW) 2,556 6.0 -7.7°
Maximum altitude 03:38:07 14° 280° (W) 2,298 5.5 -7.3°
Drops below altitude 10° 03:40:55 10° 251° (WSW) 2,570 5.6 -6.9°
Enters shadow 03:41:47 - 244° (WSW) 2,744 5.7 -6.7°
